owner,sensor,date,latitude,longitude,vertical_datum,mass_concentration_of_oxygen_in_sea_water,qcFlag 
SCCF RECON,ioos:station:SCCF:51:1,2009-11-01T00:00:00Z,26.5545,-82.1715,1.96,6.49,1111122 
SCCF RECON,ioos:station:SCCF:51:1,2009-11-01T01:00:00Z,26.5545,-82.1715,2.049,6.64,1111122 
SCCF RECON,ioos:station:SCCF:51:1,2009-11-01T02:00:00Z,26.5545,-82.1715,2.148,7.04,1111122 
SCCF RECON,ioos:station:SCCF:51:1,2009-11-01T03:00:00Z,26.5545,-82.1715,2.231,6.86,1111122 
SCCF RECON,ioos:station:SCCF:51:1,2009-11-01T04:00:00Z,26.5545,-82.1715,2.27,6.27,1111122 
SCCF RECON,ioos:station:SCCF:51:1,2009-11-01T05:00:00Z,26.5545,-82.1715,2.229,6.65,1111122 
SCCF RECON,ioos:station:SCCF:51:1,2009-11-01T06:00:00Z,26.5545,-82.1715,2.14,6.61,1111122 
SCCF RECON,ioos:station:SCCF:51:1,2009-11-01T07:00:00Z,26.5545,-82.1715,2.016,5.99,1111122 
SCCF RECON,ioos:station:SCCF:51:1,2009-11-01T08:00:00Z,26.5545,-82.1715,1.87,5.88,1111122 
SCCF RECON,ioos:station:SCCF:51:1,2009-11-01T09:00:00Z,26.5545,-82.1715,1.741,5.88,1111122 
SCCF RECON,ioos:station:SCCF:51:1,2009-11-01T10:00:00Z,26.5545,-82.1715,1.64,5.73,1111122 
SCCF RECON,ioos:station:SCCF:51:1,2009-11-01T11:00:00Z,26.5545,-82.1715,1.57,5.79,1111122 
SCCF RECON,ioos:station:SCCF:51:1,2009-11-01T12:00:00Z,26.5545,-82.1715,1.59,5.75,1111122 
SCCF RECON,ioos:station:SCCF:51:1,2009-11-01T13:00:00Z,26.5545,-82.1715,1.675,5.84,1111122 
SCCF RECON,ioos:station:SCCF:51:1,2009-11-01T14:00:00Z,26.5545,-82.1715,1.814,5.91,1111122 
SCCF RECON,ioos:station:SCCF:51:1,2009-11-01T15:00:00Z,26.5545,-82.1715,1.966,6.25,1111122 
SCCF RECON,ioos:station:SCCF:51:1,2009-11-01T16:00:00Z,26.5545,-82.1715,2.07,6.38,1111122 
SCCF RECON,ioos:station:SCCF:51:1,2009-11-01T17:00:00Z,26.5545,-82.1715,2.121,6.48,1111122 
SCCF RECON,ioos:station:SCCF:51:1,2009-11-01T18:00:00Z,26.5545,-82.1715,2.118,6.72,1111122 
SCCF RECON,ioos:station:SCCF:51:1,2009-11-01T19:00:00Z,26.5545,-82.1715,2.059,6.62,1111122 
SCCF RECON,ioos:station:SCCF:51:1,2009-11-01T20:00:00Z,26.5545,-82.1715,1.991,6.65,1111122 
SCCF RECON,ioos:station:SCCF:51:1,2009-11-01T21:00:00Z,26.5545,-82.1715,1.929,6.75,1111122 
SCCF RECON,ioos:station:SCCF:51:1,2009-11-01T22:00:00Z,26.5545,-82.1715,1.902,6.86,1111122 
SCCF RECON,ioos:station:SCCF:51:1,2009-11-01T23:00:00Z,26.5545,-82.1715,1.918,6.75,1111122 
SCCF RECON,ioos:station:SCCF:51:1,2009-11-02T00:00:00Z,26.5545,-82.1715,1.954,6.61,1111122 
SCCF RECON,ioos:station:SCCF:51:1,2009-11-02T01:00:00Z,26.5545,-82.1715,2.021,6.54,1111122 
SCCF RECON,ioos:station:SCCF:51:1,2009-11-02T02:00:00Z,26.5545,-82.1715,2.113,6.48,1111122 
SCCF RECON,ioos:station:SCCF:51:1,2009-11-02T03:00:00Z,26.5545,-82.1715,2.204,5.83,1111122 
SCCF RECON,ioos:station:SCCF:51:1,2009-11-02T04:00:00Z,26.5545,-82.1715,2.269,5.65,1111122 
SCCF RECON,ioos:station:SCCF:51:1,2009-11-02T05:00:00Z,26.5545,-82.1715,2.268,5.67,1111122 
SCCF RECON,ioos:station:SCCF:51:1,2009-11-02T06:00:00Z,26.5545,-82.1715,2.198,5.71,1111122 
SCCF RECON,ioos:station:SCCF:51:1,2009-11-02T07:00:00Z,26.5545,-82.1715,2.07,5.94,1111122 
SCCF RECON,ioos:station:SCCF:51:1,2009-11-02T08:00:00Z,26.5545,-82.1715,1.925,5.91,1111122 
SCCF RECON,ioos:station:SCCF:51:1,2009-11-02T09:00:00Z,26.5545,-82.1715,1.78,5.76,1111122 
SCCF RECON,ioos:station:SCCF:51:1,2009-11-02T10:00:00Z,26.5545,-82.1715,1.659,5.61,1111122 
SCCF RECON,ioos:station:SCCF:51:1,2009-11-02T11:00:00Z,26.5545,-82.1715,1.567,5.57,1111122 
SCCF RECON,ioos:station:SCCF:51:1,2009-11-02T12:00:00Z,26.5545,-82.1715,1.52,5.55,1111122 
SCCF RECON,ioos:station:SCCF:51:1,2009-11-02T13:00:00Z,26.5545,-82.1715,1.583,5.57,1111122 
SCCF RECON,ioos:station:SCCF:51:1,2009-11-02T14:00:00Z,26.5545,-82.1715,1.7,5.7,1111122 
SCCF RECON,ioos:station:SCCF:51:1,2009-11-02T15:00:00Z,26.5545,-82.1715,1.853,5.48,1111122 
SCCF RECON,ioos:station:SCCF:51:1,2009-11-02T16:00:00Z,26.5545,-82.1715,1.99,5.62,1111122 
SCCF RECON,ioos:station:SCCF:51:1,2009-11-02T17:00:00Z,26.5545,-82.1715,2.082,5.57,1111122 
SCCF RECON,ioos:station:SCCF:51:1,2009-11-02T18:00:00Z,26.5545,-82.1715,2.124,5.89,1111122 
SCCF RECON,ioos:station:SCCF:51:1,2009-11-02T19:00:00Z,26.5545,-82.1715,2.1,6.01,1111122 
SCCF RECON,ioos:station:SCCF:51:1,2009-11-02T20:00:00Z,26.5545,-82.1715,2.039,6.28,1111122 
SCCF RECON,ioos:station:SCCF:51:1,2009-11-02T21:00:00Z,26.5545,-82.1715,1.971,6.64,1111122 
SCCF RECON,ioos:station:SCCF:51:1,2009-11-02T22:00:00Z,26.5545,-82.1715,1.938,6.41,1111122 
SCCF RECON,ioos:station:SCCF:51:1,2009-11-02T23:00:00Z,26.5545,-82.1715,1.948,6.81,1111122 
SCCF RECON,ioos:station:SCCF:51:1,2009-11-03T00:00:00Z,26.5545,-82.1715,1.985,6.5,1111122 
SCCF RECON,ioos:station:SCCF:51:1,2009-11-03T01:00:00Z,26.5545,-82.1715,2.039,6.23,1111122 
SCCF RECON,ioos:station:SCCF:51:1,2009-11-03T02:00:00Z,26.5545,-82.1715,2.119,5.96,1111122 
SCCF RECON,ioos:station:SCCF:51:1,2009-11-03T03:00:00Z,26.5545,-82.1715,2.206,5.77,1111122 
SCCF RECON,ioos:station:SCCF:51:1,2009-11-03T04:00:00Z,26.5545,-82.1715,2.278,5.5,1111122 
SCCF RECON,ioos:station:SCCF:51:1,2009-11-03T05:00:00Z,26.5545,-82.1715,2.292,5.3,1111122 
SCCF RECON,ioos:station:SCCF:51:1,2009-11-03T06:00:00Z,26.5545,-82.1715,2.237,5.29,1111122 
SCCF RECON,ioos:station:SCCF:51:1,2009-11-03T07:00:00Z,26.5545,-82.1715,2.141,5.52,1111122 
SCCF RECON,ioos:station:SCCF:51:1,2009-11-03T08:00:00Z,26.5545,-82.1715,2.012,5.56,1111122 
SCCF RECON,ioos:station:SCCF:51:1,2009-11-03T09:00:00Z,26.5545,-82.1715,1.866,5.82,1111122 
SCCF RECON,ioos:station:SCCF:51:1,2009-11-03T10:00:00Z,26.5545,-82.1715,1.73,5.63,1111122 
SCCF RECON,ioos:station:SCCF:51:1,2009-11-03T11:00:00Z,26.5545,-82.1715,1.605,5.52,1111122 
SCCF RECON,ioos:station:SCCF:51:1,2009-11-03T12:00:00Z,26.5545,-82.1715,1.51,5.51,1111122 
SCCF RECON,ioos:station:SCCF:51:1,2009-11-03T13:00:00Z,26.5545,-82.1715,1.469,5.61,1111122 
SCCF RECON,ioos:station:SCCF:51:1,2009-11-03T14:00:00Z,26.5545,-82.1715,1.54,5.74,1111122 
SCCF RECON,ioos:station:SCCF:51:1,2009-11-03T15:00:00Z,26.5545,-82.1715,1.667,5.85,1111122 
SCCF RECON,ioos:station:SCCF:51:1,2009-11-03T16:00:00Z,26.5545,-82.1715,1.82,5.55,1111122 
SCCF RECON,ioos:station:SCCF:51:1,2009-11-03T17:00:00Z,26.5545,-82.1715,1.949,5.74,1111122 
SCCF RECON,ioos:station:SCCF:51:1,2009-11-03T18:00:00Z,26.5545,-82.1715,2.025,6.15,1111122 
SCCF RECON,ioos:station:SCCF:51:1,2009-11-03T19:00:00Z,26.5545,-82.1715,2.058,6.01,1111122 
SCCF RECON,ioos:station:SCCF:51:1,2009-11-03T20:00:00Z,26.5545,-82.1715,2.029,6.36,1111122 
SCCF RECON,ioos:station:SCCF:51:1,2009-11-03T21:00:00Z,26.5545,-82.1715,1.971,6.56,1111122 
SCCF RECON,ioos:station:SCCF:51:1,2009-11-03T22:00:00Z,26.5545,-82.1715,1.924,6.55,1111122 
SCCF RECON,ioos:station:SCCF:51:1,2009-11-03T23:00:00Z,26.5545,-82.1715,1.898,6.63,1111122 
SCCF RECON,ioos:station:SCCF:51:1,2009-11-04T00:00:00Z,26.5545,-82.1715,1.914,6.62,1111122 
SCCF RECON,ioos:station:SCCF:51:1,2009-11-04T01:00:00Z,26.5545,-82.1715,1.974,6.39,1111122 
SCCF RECON,ioos:station:SCCF:51:1,2009-11-04T02:00:00Z,26.5545,-82.1715,2.043,6.14,1111122 
SCCF RECON,ioos:station:SCCF:51:1,2009-11-04T03:00:00Z,26.5545,-82.1715,2.128,6.02,1111122 
SCCF RECON,ioos:station:SCCF:51:1,2009-11-04T04:00:00Z,26.5545,-82.1715,2.213,5.92,1111122 
SCCF RECON,ioos:station:SCCF:51:1,2009-11-04T05:00:00Z,26.5545,-82.1715,2.248,5.56,1111122 
SCCF RECON,ioos:station:SCCF:51:1,2009-11-04T06:00:00Z,26.5545,-82.1715,2.217,5.45,1111122 
SCCF RECON,ioos:station:SCCF:51:1,2009-11-04T07:00:00Z,26.5545,-82.1715,2.138,5.79,1111122 
SCCF RECON,ioos:station:SCCF:51:1,2009-11-04T08:00:00Z,26.5545,-82.1715,2.029,5.82,1111122 
SCCF RECON,ioos:station:SCCF:51:1,2009-11-04T09:00:00Z,26.5545,-82.1715,1.894,5.77,1111122 
SCCF RECON,ioos:station:SCCF:51:1,2009-11-04T10:00:00Z,26.5545,-82.1715,1.751,5.75,1111122 
SCCF RECON,ioos:station:SCCF:51:1,2009-11-04T11:00:00Z,26.5545,-82.1715,1.619,5.69,1111122 
SCCF RECON,ioos:station:SCCF:51:1,2009-11-04T12:00:00Z,26.5545,-82.1715,1.501,5.67,1111122 
SCCF RECON,ioos:station:SCCF:51:1,2009-11-04T13:00:00Z,26.5545,-82.1715,1.405,5.59,1111122 
SCCF RECON,ioos:station:SCCF:51:1,2009-11-04T14:00:00Z,26.5545,-82.1715,1.386,5.69,1111122 
SCCF RECON,ioos:station:SCCF:51:1,2009-11-04T15:00:00Z,26.5545,-82.1715,1.484,6.09,1111122 
SCCF RECON,ioos:station:SCCF:51:1,2009-11-04T16:00:00Z,26.5545,-82.1715,1.62,6.38,1111122 
SCCF RECON,ioos:station:SCCF:51:1,2009-11-04T17:00:00Z,26.5545,-82.1715,1.769,6.08,1111122 
SCCF RECON,ioos:station:SCCF:51:1,2009-11-04T19:00:00Z,26.5545,-82.1715,1.967,6.88,1111122 
SCCF RECON,ioos:station:SCCF:51:1,2009-11-04T20:00:00Z,26.5545,-82.1715,2.007,6.98,1111122 
SCCF RECON,ioos:station:SCCF:51:1,2009-11-04T21:00:00Z,26.5545,-82.1715,2.004,7.15,1111122 
SCCF RECON,ioos:station:SCCF:51:1,2009-11-04T22:00:00Z,26.5545,-82.1715,1.977,7.06,1111122 
SCCF RECON,ioos:station:SCCF:51:1,2009-11-04T23:00:00Z,26.5545,-82.1715,1.962,7.18,1111122 
SCCF RECON,ioos:station:SCCF:51:1,2009-11-05T00:00:00Z,26.5545,-82.1715,1.969,7.06,1111122 
SCCF RECON,ioos:station:SCCF:51:1,2009-11-05T01:00:00Z,26.5545,-82.1715,1.993,6.93,1111122 
SCCF RECON,ioos:station:SCCF:51:1,2009-11-05T02:00:00Z,26.5545,-82.1715,2.056,6.91,1111122 
SCCF RECON,ioos:station:SCCF:51:1,2009-11-05T03:00:00Z,26.5545,-82.1715,2.125,6.7,1111122 
SCCF RECON,ioos:station:SCCF:51:1,2009-11-05T04:00:00Z,26.5545,-82.1715,2.199,6.53,1111122 
SCCF RECON,ioos:station:SCCF:51:1,2009-11-05T05:00:00Z,26.5545,-82.1715,2.25,6.35,1111122 
SCCF RECON,ioos:station:SCCF:51:1,2009-11-05T06:00:00Z,26.5545,-82.1715,2.252,6.13,1111122 
SCCF RECON,ioos:station:SCCF:51:1,2009-11-05T07:00:00Z,26.5545,-82.1715,2.2,6.3,1111122 
SCCF RECON,ioos:station:SCCF:51:1,2009-11-05T08:00:00Z,26.5545,-82.1715,2.123,6.29,1111122 
SCCF RECON,ioos:station:SCCF:51:1,2009-11-05T09:00:00Z,26.5545,-82.1715,2.022,6.32,1111122 
SCCF RECON,ioos:station:SCCF:51:1,2009-11-05T10:00:00Z,26.5545,-82.1715,1.885,6.3,1111122 
SCCF RECON,ioos:station:SCCF:51:1,2009-11-05T11:00:00Z,26.5545,-82.1715,1.747,6.21,1111122 
SCCF RECON,ioos:station:SCCF:51:1,2009-11-05T12:00:00Z,26.5545,-82.1715,1.618,6.06,1111122 
SCCF RECON,ioos:station:SCCF:51:1,2009-11-05T13:00:00Z,26.5545,-82.1715,1.508,6.03,1111122 
SCCF RECON,ioos:station:SCCF:51:1,2009-11-05T14:00:00Z,26.5545,-82.1715,1.417,6.08,1111122 
SCCF RECON,ioos:station:SCCF:51:1,2009-11-05T15:00:00Z,26.5545,-82.1715,1.39,6.23,1111122 
SCCF RECON,ioos:station:SCCF:51:1,2009-11-05T16:00:00Z,26.5545,-82.1715,1.472,6.56,1111122 
SCCF RECON,ioos:station:SCCF:51:1,2009-11-05T17:00:00Z,26.5545,-82.1715,1.592,6.73,1111122 
SCCF RECON,ioos:station:SCCF:51:1,2009-11-05T18:00:00Z,26.5545,-82.1715,1.713,6.58,1111122 
SCCF RECON,ioos:station:SCCF:51:1,2009-11-05T19:00:00Z,26.5545,-82.1715,1.819,6.86,1111122 
SCCF RECON,ioos:station:SCCF:51:1,2009-11-05T20:00:00Z,26.5545,-82.1715,1.902,6.93,1111122 
SCCF RECON,ioos:station:SCCF:51:1,2009-11-05T21:00:00Z,26.5545,-82.1715,1.931,7.04,1111122 
SCCF RECON,ioos:station:SCCF:51:1,2009-11-05T22:00:00Z,26.5545,-82.1715,1.917,7.15,1111122 
SCCF RECON,ioos:station:SCCF:51:1,2009-11-05T23:00:00Z,26.5545,-82.1715,1.894,7.07,1111122 
SCCF RECON,ioos:station:SCCF:51:1,2009-11-06T00:00:00Z,26.5545,-82.1715,1.87,6.82,1111122 
SCCF RECON,ioos:station:SCCF:51:1,2009-11-06T01:00:00Z,26.5545,-82.1715,1.894,6.79,1111122 
SCCF RECON,ioos:station:SCCF:51:1,2009-11-06T02:00:00Z,26.5545,-82.1715,1.935,6.81,1111122 
SCCF RECON,ioos:station:SCCF:51:1,2009-11-06T03:00:00Z,26.5545,-82.1715,1.973,6.81,1111122 
SCCF RECON,ioos:station:SCCF:51:1,2009-11-06T04:00:00Z,26.5545,-82.1715,2.016,6.67,1111122 
SCCF RECON,ioos:station:SCCF:51:1,2009-11-06T05:00:00Z,26.5545,-82.1715,2.066,6.69,1111122 
SCCF RECON,ioos:station:SCCF:51:1,2009-11-06T06:00:00Z,26.5545,-82.1715,2.084,6.7,1111122 
SCCF RECON,ioos:station:SCCF:51:1,2009-11-06T07:00:00Z,26.5545,-82.1715,2.069,6.56,1111122 
SCCF RECON,ioos:station:SCCF:51:1,2009-11-06T08:00:00Z,26.5545,-82.1715,2.031,6.53,1111122 
SCCF RECON,ioos:station:SCCF:51:1,2009-11-06T09:00:00Z,26.5545,-82.1715,1.969,6.41,1111122 
SCCF RECON,ioos:station:SCCF:51:1,2009-11-06T10:00:00Z,26.5545,-82.1715,1.877,6.39,1111122 
SCCF RECON,ioos:station:SCCF:51:1,2009-11-06T11:00:00Z,26.5545,-82.1715,1.758,6.37,1111122 
SCCF RECON,ioos:station:SCCF:51:1,2009-11-06T12:00:00Z,26.5545,-82.1715,1.633,6.31,1111122 
SCCF RECON,ioos:station:SCCF:51:1,2009-11-06T13:00:00Z,26.5545,-82.1715,1.513,6.3,1111122 
SCCF RECON,ioos:station:SCCF:51:1,2009-11-06T14:00:00Z,26.5545,-82.1715,1.402,6.35,1111122 
SCCF RECON,ioos:station:SCCF:51:1,2009-11-06T15:00:00Z,26.5545,-82.1715,1.327,6.48,1111122 
SCCF RECON,ioos:station:SCCF:51:1,2009-11-06T16:00:00Z,26.5545,-82.1715,1.323,6.55,1111122 
SCCF RECON,ioos:station:SCCF:51:1,2009-11-06T17:00:00Z,26.5545,-82.1715,1.413,6.76,1111122 
SCCF RECON,ioos:station:SCCF:51:1,2009-11-06T18:00:00Z,26.5545,-82.1715,1.535,7.59,1111122 
SCCF RECON,ioos:station:SCCF:51:1,2009-11-06T19:00:00Z,26.5545,-82.1715,1.667,7.1,1111122 
SCCF RECON,ioos:station:SCCF:51:1,2009-11-06T20:00:00Z,26.5545,-82.1715,1.779,7.21,1111122 
SCCF RECON,ioos:station:SCCF:51:1,2009-11-06T21:00:00Z,26.5545,-82.1715,1.835,7.93,1111122 
SCCF RECON,ioos:station:SCCF:51:1,2009-11-06T22:00:00Z,26.5545,-82.1715,1.853,7.32,1111122 
SCCF RECON,ioos:station:SCCF:51:1,2009-11-06T23:00:00Z,26.5545,-82.1715,1.854,7.41,1111122 
SCCF RECON,ioos:station:SCCF:51:1,2009-11-07T00:00:00Z,26.5545,-82.1715,1.847,7.29,1111122 
SCCF RECON,ioos:station:SCCF:51:1,2009-11-07T01:00:00Z,26.5545,-82.1715,1.849,6.98,1111122 
SCCF RECON,ioos:station:SCCF:51:1,2009-11-07T02:00:00Z,26.5545,-82.1715,1.871,6.96,1111122 
SCCF RECON,ioos:station:SCCF:51:1,2009-11-07T03:00:00Z,26.5545,-82.1715,1.913,6.93,1111122 
SCCF RECON,ioos:station:SCCF:51:1,2009-11-07T04:00:00Z,26.5545,-82.1715,1.964,6.95,1111122 
SCCF RECON,ioos:station:SCCF:51:1,2009-11-07T05:00:00Z,26.5545,-82.1715,2.027,7.02,1111122 
SCCF RECON,ioos:station:SCCF:51:1,2009-11-07T06:00:00Z,26.5545,-82.1715,2.077,6.8,1111122 
SCCF RECON,ioos:station:SCCF:51:1,2009-11-07T07:00:00Z,26.5545,-82.1715,2.12,6.56,1111122 
SCCF RECON,ioos:station:SCCF:51:1,2009-11-07T08:00:00Z,26.5545,-82.1715,2.132,6.51,1111122 
SCCF RECON,ioos:station:SCCF:51:1,2009-11-07T09:00:00Z,26.5545,-82.1715,2.141,6.49,1111122 
SCCF RECON,ioos:station:SCCF:51:1,2009-11-07T10:00:00Z,26.5545,-82.1715,2.075,6.52,1111122 
SCCF RECON,ioos:station:SCCF:51:1,2009-11-07T11:00:00Z,26.5545,-82.1715,1.981,6.46,1111122 
SCCF RECON,ioos:station:SCCF:51:1,2009-11-07T12:00:00Z,26.5545,-82.1715,1.864,6.46,1111122 
SCCF RECON,ioos:station:SCCF:51:1,2009-11-07T13:00:00Z,26.5545,-82.1715,1.734,6.45,1111122 
SCCF RECON,ioos:station:SCCF:51:1,2009-11-07T14:00:00Z,26.5545,-82.1715,1.619,6.44,1111122 
SCCF RECON,ioos:station:SCCF:51:1,2009-11-07T15:00:00Z,26.5545,-82.1715,1.517,6.42,1111122 
SCCF RECON,ioos:station:SCCF:51:1,2009-11-07T16:00:00Z,26.5545,-82.1715,1.458,6.59,1111122 
SCCF RECON,ioos:station:SCCF:51:1,2009-11-07T17:00:00Z,26.5545,-82.1715,1.481,6.66,1111122 
SCCF RECON,ioos:station:SCCF:51:1,2009-11-07T18:00:00Z,26.5545,-82.1715,1.575,6.79,1111122 
SCCF RECON,ioos:station:SCCF:51:1,2009-11-07T19:00:00Z,26.5545,-82.1715,1.694,7.27,1111122 
SCCF RECON,ioos:station:SCCF:51:1,2009-11-07T20:00:00Z,26.5545,-82.1715,1.806,7.59,1111122 
SCCF RECON,ioos:station:SCCF:51:1,2009-11-07T21:00:00Z,26.5545,-82.1715,1.895,7.49,1111122 
SCCF RECON,ioos:station:SCCF:51:1,2009-11-07T22:00:00Z,26.5545,-82.1715,1.944,7.53,1111122 
SCCF RECON,ioos:station:SCCF:51:1,2009-11-07T23:00:00Z,26.5545,-82.1715,1.937,7.46,1111122 
SCCF RECON,ioos:station:SCCF:51:1,2009-11-08T00:00:00Z,26.5545,-82.1715,1.908,7.22,1111122 
SCCF RECON,ioos:station:SCCF:51:1,2009-11-08T01:00:00Z,26.5545,-82.1715,1.873,7.25,1111122 
SCCF RECON,ioos:station:SCCF:51:1,2009-11-08T02:00:00Z,26.5545,-82.1715,1.863,7.13,1111122 
SCCF RECON,ioos:station:SCCF:51:1,2009-11-08T03:00:00Z,26.5545,-82.1715,1.875,7.1,1111122 
SCCF RECON,ioos:station:SCCF:51:1,2009-11-08T04:00:00Z,26.5545,-82.1715,1.907,6.97,1111122 
SCCF RECON,ioos:station:SCCF:51:1,2009-11-08T05:00:00Z,26.5545,-82.1715,1.945,6.96,1111122 
SCCF RECON,ioos:station:SCCF:51:1,2009-11-08T06:00:00Z,26.5545,-82.1715,2.019,6.91,1111122 
SCCF RECON,ioos:station:SCCF:51:1,2009-11-08T07:00:00Z,26.5545,-82.1715,2.104,6.62,1111122 
SCCF RECON,ioos:station:SCCF:51:1,2009-11-08T08:00:00Z,26.5545,-82.1715,2.179,6.73,1111122 
SCCF RECON,ioos:station:SCCF:51:1,2009-11-08T09:00:00Z,26.5545,-82.1715,2.205,6.71,1111122 
SCCF RECON,ioos:station:SCCF:51:1,2009-11-08T10:00:00Z,26.5545,-82.1715,2.174,6.67,1111122 
SCCF RECON,ioos:station:SCCF:51:1,2009-11-08T11:00:00Z,26.5545,-82.1715,2.101,6.61,1111122 
SCCF RECON,ioos:station:SCCF:51:1,2009-11-08T12:00:00Z,26.5545,-82.1715,1.997,6.61,1111122 
SCCF RECON,ioos:station:SCCF:51:1,2009-11-08T13:00:00Z,26.5545,-82.1715,1.893,6.6,1111122 
SCCF RECON,ioos:station:SCCF:51:1,2009-11-08T14:00:00Z,26.5545,-82.1715,1.782,6.68,1111122 
SCCF RECON,ioos:station:SCCF:51:1,2009-11-08T15:00:00Z,26.5545,-82.1715,1.674,6.85,1111122 
SCCF RECON,ioos:station:SCCF:51:1,2009-11-08T16:00:00Z,26.5545,-82.1715,1.579,6.97,1111122 
SCCF RECON,ioos:station:SCCF:51:1,2009-11-08T17:00:00Z,26.5545,-82.1715,1.541,7.09,1111122 
SCCF RECON,ioos:station:SCCF:51:1,2009-11-08T18:00:00Z,26.5545,-82.1715,1.563,7.27,1111122 
SCCF RECON,ioos:station:SCCF:51:1,2009-11-08T19:00:00Z,26.5545,-82.1715,1.669,7.43,1111122 
SCCF RECON,ioos:station:SCCF:51:1,2009-11-08T20:00:00Z,26.5545,-82.1715,1.779,7.42,1111122 
SCCF RECON,ioos:station:SCCF:51:1,2009-11-08T21:00:00Z,26.5545,-82.1715,1.876,7.4,1111122 
SCCF RECON,ioos:station:SCCF:51:1,2009-11-08T22:00:00Z,26.5545,-82.1715,1.956,7.73,1111122 
SCCF RECON,ioos:station:SCCF:51:1,2009-11-08T23:00:00Z,26.5545,-82.1715,1.996,7.4,1111122 
SCCF RECON,ioos:station:SCCF:51:1,2009-11-09T00:00:00Z,26.5545,-82.1715,2.022,7.14,1111122 
SCCF RECON,ioos:station:SCCF:51:1,2009-11-09T01:00:00Z,26.5545,-82.1715,1.999,7.17,1111122 
SCCF RECON,ioos:station:SCCF:51:1,2009-11-09T02:00:00Z,26.5545,-82.1715,1.977,7.08,1111122 
SCCF RECON,ioos:station:SCCF:51:1,2009-11-09T03:00:00Z,26.5545,-82.1715,1.947,7.06,1111122 
SCCF RECON,ioos:station:SCCF:51:1,2009-11-09T04:00:00Z,26.5545,-82.1715,1.934,6.9,1111122 
SCCF RECON,ioos:station:SCCF:51:1,2009-11-09T05:00:00Z,26.5545,-82.1715,1.973,6.7,1111122 
SCCF RECON,ioos:station:SCCF:51:1,2009-11-09T06:00:00Z,26.5545,-82.1715,2.032,6.8,1111122 
SCCF RECON,ioos:station:SCCF:51:1,2009-11-09T07:00:00Z,26.5545,-82.1715,2.107,6.81,1111122 
SCCF RECON,ioos:station:SCCF:51:1,2009-11-09T08:00:00Z,26.5545,-82.1715,2.173,6.68,1111122 
SCCF RECON,ioos:station:SCCF:51:1,2009-11-09T09:00:00Z,26.5545,-82.1715,2.251,6.58,1111122 
SCCF RECON,ioos:station:SCCF:51:1,2009-11-09T10:00:00Z,26.5545,-82.1715,2.305,6.44,1111122 
SCCF RECON,ioos:station:SCCF:51:1,2009-11-09T11:00:00Z,26.5545,-82.1715,2.318,6.55,1111122 
SCCF RECON,ioos:station:SCCF:51:1,2009-11-09T12:00:00Z,26.5545,-82.1715,2.277,6.54,1111122 
SCCF RECON,ioos:station:SCCF:51:1,2009-11-09T13:00:00Z,26.5545,-82.1715,2.194,6.5,1111122 
SCCF RECON,ioos:station:SCCF:51:1,2009-11-09T14:00:00Z,26.5545,-82.1715,2.092,6.55,1111122 
SCCF RECON,ioos:station:SCCF:51:1,2009-11-09T15:00:00Z,26.5545,-82.1715,1.984,6.5,1111122 
SCCF RECON,ioos:station:SCCF:51:1,2009-11-09T16:00:00Z,26.5545,-82.1715,1.874,6.65,1111122 
SCCF RECON,ioos:station:SCCF:51:1,2009-11-09T17:00:00Z,26.5545,-82.1715,1.803,6.64,1111122 
SCCF RECON,ioos:station:SCCF:51:1,2009-11-09T18:00:00Z,26.5545,-82.1715,1.784,6.89,1111122 
SCCF RECON,ioos:station:SCCF:51:1,2009-11-09T19:00:00Z,26.5545,-82.1715,1.852,7.11,1111122 
SCCF RECON,ioos:station:SCCF:51:1,2009-11-09T20:00:00Z,26.5545,-82.1715,1.958,7.16,1111122 
SCCF RECON,ioos:station:SCCF:51:1,2009-11-09T21:00:00Z,26.5545,-82.1715,2.059,7.24,1111122 
SCCF RECON,ioos:station:SCCF:51:1,2009-11-09T22:00:00Z,26.5545,-82.1715,2.155,7.14,1111122 
SCCF RECON,ioos:station:SCCF:51:1,2009-11-09T23:00:00Z,26.5545,-82.1715,2.237,6.88,1111122 
SCCF RECON,ioos:station:SCCF:51:1,2009-11-10T00:00:00Z,26.5545,-82.1715,2.294,6.59,1111122 
SCCF RECON,ioos:station:SCCF:51:1,2009-11-10T01:00:00Z,26.5545,-82.1715,2.3,6.77,1111122 
SCCF RECON,ioos:station:SCCF:51:1,2009-11-10T02:00:00Z,26.5545,-82.1715,2.267,6.82,1111122 
SCCF RECON,ioos:station:SCCF:51:1,2009-11-10T03:00:00Z,26.5545,-82.1715,2.211,6.61,1111122 
SCCF RECON,ioos:station:SCCF:51:1,2009-11-10T04:00:00Z,26.5545,-82.1715,2.149,6.68,1111122 
SCCF RECON,ioos:station:SCCF:51:1,2009-11-10T05:00:00Z,26.5545,-82.1715,2.1,6.68,1111122 
SCCF RECON,ioos:station:SCCF:51:1,2009-11-10T06:00:00Z,26.5545,-82.1715,2.05,6.71,1111122 
SCCF RECON,ioos:station:SCCF:51:1,2009-11-10T07:00:00Z,26.5545,-82.1715,2.059,6.64,1111122 
SCCF RECON,ioos:station:SCCF:51:1,2009-11-10T08:00:00Z,26.5545,-82.1715,2.075,6.66,1111122 
SCCF RECON,ioos:station:SCCF:51:1,2009-11-10T09:00:00Z,26.5545,-82.1715,2.148,6.57,1111122 
SCCF RECON,ioos:station:SCCF:51:1,2009-11-10T10:00:00Z,26.5545,-82.1715,2.201,6.45,1111122 
SCCF RECON,ioos:station:SCCF:51:1,2009-11-10T11:00:00Z,26.5545,-82.1715,2.235,6.43,1111122 
SCCF RECON,ioos:station:SCCF:51:1,2009-11-10T12:00:00Z,26.5545,-82.1715,2.28,6.35,1111122 
SCCF RECON,ioos:station:SCCF:51:1,2009-11-10T13:00:00Z,26.5545,-82.1715,2.288,6.34,1111122 
SCCF RECON,ioos:station:SCCF:51:1,2009-11-10T14:00:00Z,26.5545,-82.1715,2.238,6.34,1111122 
SCCF RECON,ioos:station:SCCF:51:1,2009-11-10T15:00:00Z,26.5545,-82.1715,2.17,6.33,1111122 
SCCF RECON,ioos:station:SCCF:51:1,2009-11-10T16:00:00Z,26.5545,-82.1715,2.078,6.48,1111122 
SCCF RECON,ioos:station:SCCF:51:1,2009-11-10T17:00:00Z,26.5545,-82.1715,2.0,6.48,1111122 
SCCF RECON,ioos:station:SCCF:51:1,2009-11-10T18:00:00Z,26.5545,-82.1715,1.922,6.64,1111122 
SCCF RECON,ioos:station:SCCF:51:1,2009-11-10T19:00:00Z,26.5545,-82.1715,1.882,6.88,1111122 
SCCF RECON,ioos:station:SCCF:51:1,2009-11-10T20:00:00Z,26.5545,-82.1715,1.907,6.85,1111122 
SCCF RECON,ioos:station:SCCF:51:1,2009-11-10T21:00:00Z,26.5545,-82.1715,1.998,6.92,1111122 
SCCF RECON,ioos:station:SCCF:51:1,2009-11-10T22:00:00Z,26.5545,-82.1715,2.1,7.01,1111122 
SCCF RECON,ioos:station:SCCF:51:1,2009-11-10T23:00:00Z,26.5545,-82.1715,2.214,6.42,1111122 
SCCF RECON,ioos:station:SCCF:51:1,2009-11-11T00:00:00Z,26.5545,-82.1715,2.277,6.28,1111122 
SCCF RECON,ioos:station:SCCF:51:1,2009-11-11T01:00:00Z,26.5545,-82.1715,2.31,6.19,1111122 
SCCF RECON,ioos:station:SCCF:51:1,2009-11-11T02:00:00Z,26.5545,-82.1715,2.274,6.12,1111122 
SCCF RECON,ioos:station:SCCF:51:1,2009-11-11T03:00:00Z,26.5545,-82.1715,2.207,6.34,1111122 
SCCF RECON,ioos:station:SCCF:51:1,2009-11-11T04:00:00Z,26.5545,-82.1715,2.136,6.35,1111122 
SCCF RECON,ioos:station:SCCF:51:1,2009-11-11T05:00:00Z,26.5545,-82.1715,2.062,6.35,1111122 
SCCF RECON,ioos:station:SCCF:51:1,2009-11-11T06:00:00Z,26.5545,-82.1715,1.993,6.27,1111122 
SCCF RECON,ioos:station:SCCF:51:1,2009-11-11T07:00:00Z,26.5545,-82.1715,1.93,6.11,1111122 
SCCF RECON,ioos:station:SCCF:51:1,2009-11-11T08:00:00Z,26.5545,-82.1715,1.912,5.96,1111122 
SCCF RECON,ioos:station:SCCF:51:1,2009-11-11T09:00:00Z,26.5545,-82.1715,1.945,6.18,1111122 
SCCF RECON,ioos:station:SCCF:51:1,2009-11-11T10:00:00Z,26.5545,-82.1715,2.052,6.25,1111122 
SCCF RECON,ioos:station:SCCF:51:1,2009-11-11T11:00:00Z,26.5545,-82.1715,2.102,6.12,1111122 
SCCF RECON,ioos:station:SCCF:51:1,2009-11-11T12:00:00Z,26.5545,-82.1715,2.12,6.04,1111122 
SCCF RECON,ioos:station:SCCF:51:1,2009-11-11T13:00:00Z,26.5545,-82.1715,2.139,6.02,1111122 
SCCF RECON,ioos:station:SCCF:51:1,2009-11-11T14:00:00Z,26.5545,-82.1715,2.137,6.11,1111122 
SCCF RECON,ioos:station:SCCF:51:1,2009-11-11T15:00:00Z,26.5545,-82.1715,2.119,6.22,1111122 
SCCF RECON,ioos:station:SCCF:51:1,2009-11-11T16:00:00Z,26.5545,-82.1715,2.054,6.32,1111122 
SCCF RECON,ioos:station:SCCF:51:1,2009-11-11T17:00:00Z,26.5545,-82.1715,1.971,6.36,1111122 
SCCF RECON,ioos:station:SCCF:51:1,2009-11-11T18:00:00Z,26.5545,-82.1715,1.878,6.71,1111122 
SCCF RECON,ioos:station:SCCF:51:1,2009-11-11T19:00:00Z,26.5545,-82.1715,1.799,6.78,1111122 
SCCF RECON,ioos:station:SCCF:51:1,2009-11-11T20:00:00Z,26.5545,-82.1715,1.764,7.17,1111122 